Montello, Wisconsin, United States (53949)
Lat: 43.79N, Lon: 89.32W
Wx Zone: WIZ046
Local Info
Past Weather Observations for Thursday, October 16, 2014

NOTE: This archive is for the closest National Weather Service station to Montello. Information may differ from the station used for current weather conditions.

Click here for Long-term Archive

Time Weather Temperature Dewpoint Humidity Pressure Winds Precip Visibility
23:55
Clear
54°F / 12°C 45°F / 7°C 72% 29.56 in
(1001 mb)
SW 6.9 mph
(SW 11 kph)
- 10SM
23:35
Clear
54°F / 12°C 45°F / 7°C 72% 29.56 in
(1001 mb)
SSW 6.9 mph
(SSW 11 kph)
- 10SM
23:15
Clear
55°F / 13°C 45°F / 7°C 67% 29.56 in
(1001 mb)
SW 9.2 mph
(SW 15 kph)
- 10SM
22:55
Clear
55°F / 13°C 46°F / 8°C 72% 29.56 in
(1001 mb)
SW 9.2 mph
(SW 15 kph)
- 10SM
22:35
Clear
57°F / 14°C 46°F / 8°C 67% 29.56 in
(1001 mb)
SW 11.5 mph
(SW 19 kph)
- 10SM
22:15
Clear
55°F / 13°C 46°F / 8°C 72% 29.56 in
(1001 mb)
SW 9.2 mph
(SW 15 kph)
- 10SM
21:55
Clear
55°F / 13°C 46°F / 8°C 72% 29.56 in
(1001 mb)
SW 8.1 mph
(SW 13 kph)
- 10SM
21:35
Clear
55°F / 13°C 46°F / 8°C 72% 29.59 in
(1002 mb)
SSE 9.2 mph
(SSE 15 kph)
- 10SM
21:15
Clear
54°F / 12°C 48°F / 9°C 82% 29.59 in
(1002 mb)
S 10.4 mph
(S 17 kph)
- 10SM
20:55
Clear
55°F / 13°C 48°F / 9°C 77% 29.59 in
(1002 mb)
S 9.2 mph
(S 15 kph)
- 10SM
20:35
Clear
55°F / 13°C 48°F / 9°C 77% 29.59 in
(1002 mb)
S 9.2 mph
(S 15 kph)
- 10SM
20:15
Clear
54°F / 12°C 48°F / 9°C 82% 29.62 in
(1003 mb)
S 6.9 mph
(S 11 kph)
- 10SM
19:55
Clear
52°F / 11°C 46°F / 8°C 82% 29.62 in
(1003 mb)
S 6.9 mph
(S 11 kph)
- 10SM
19:35
Clear
52°F / 11°C 46°F / 8°C 82% 29.62 in
(1003 mb)
S 6.9 mph
(S 11 kph)
- 10SM
19:15
Clear
55°F / 13°C 48°F / 9°C 77% 29.62 in
(1003 mb)
S 6.9 mph
(S 11 kph)
- 10SM
18:55
Clear
52°F / 11°C 46°F / 8°C 82% 29.65 in
(1004 mb)
SSE 6.9 mph
(SSE 11 kph)
- 10SM
18:35
Clear
55°F / 13°C 46°F / 8°C 72% 29.65 in
(1004 mb)
SSE 4.6 mph
(SSE 7 kph)
- 10SM
18:15
Clear
55°F / 13°C 46°F / 8°C 72% 29.65 in
(1004 mb)
SW 5.8 mph
(SW 9 kph)
- 10SM
17:55
Clear
55°F / 13°C 46°F / 8°C 72% 29.65 in
(1004 mb)
SW 4.6 mph
(SW 7 kph)
- 10SM
17:35
Clear
57°F / 14°C 46°F / 8°C 67% 29.65 in
(1004 mb)
S 3.5 mph
(S 6 kph)
- 10SM
17:15
Clear
57°F / 14°C 46°F / 8°C 67% 29.65 in
(1004 mb)
SSE 4.6 mph
(SSE 7 kph)
- 10SM
16:55
Clear
59°F / 15°C 46°F / 8°C 63% 29.65 in
(1004 mb)
SW 5.8 mph
(SW 9 kph)
- 10SM
16:35
Clear
61°F / 16°C 46°F / 8°C 59% 29.65 in
(1004 mb)
SW 5.8 mph
(SW 9 kph)
- 10SM
16:15
Clear
63°F / 17°C 48°F / 9°C 59% 29.65 in
(1004 mb)
SW 9.2 mph
(SW 15 kph)
- 10SM
15:55
Clear
64°F / 18°C 46°F / 8°C 52% 29.65 in
(1004 mb)
SSE 9.2 mph
(SSE 15 kph)
- 10SM
15:35
Clear
64°F / 18°C 46°F / 8°C 52% 29.68 in
(1005 mb)
SW 8.1 mph
(SW 13 kph)
- 10SM
15:15
Clear
63°F / 17°C 46°F / 8°C 56% 29.68 in
(1005 mb)
S 8.1 mph
(S 13 kph)
- 10SM
14:55
Clear
64°F / 18°C 46°F / 8°C 52% 29.68 in
(1005 mb)
SW 6.9 mph
(SW 11 kph)
- 10SM
14:35
Clear
64°F / 18°C 45°F / 7°C 49% 29.68 in
(1005 mb)
SSW 6.9 mph
(SSW 11 kph)
- 10SM
14:15
Clear
64°F / 18°C 46°F / 8°C 52% 29.68 in
(1005 mb)
SW 10.4 mph
(SW 17 kph)
- 10SM
13:55
Clear
64°F / 18°C 45°F / 7°C 49% 29.71 in
(1006 mb)
SSW 5.8 mph
(SSW 9 kph)
- 10SM
13:35
Clear
64°F / 18°C 45°F / 7°C 49% 29.71 in
(1006 mb)
W 10.4 mph
(W 17 kph)
- 10SM
13:15
Clear
64°F / 18°C 45°F / 7°C 49% 29.74 in
(1007 mb)
SSW 10.4 mph
(SSW 17 kph)
- 10SM
12:55
Clear
63°F / 17°C 45°F / 7°C 52% 29.74 in
(1007 mb)
SW 6.9 mph
(SW 11 kph)
- 10SM
12:35
Clear
63°F / 17°C 45°F / 7°C 52% 29.74 in
(1007 mb)
SSW 5.8 mph
(SSW 9 kph)
- 10SM
12:15
Clear
61°F / 16°C 45°F / 7°C 55% 29.74 in
(1007 mb)
SW 5.8 mph
(SW 9 kph)
- 10SM
11:55
Clear
61°F / 16°C 46°F / 8°C 59% 29.74 in
(1007 mb)
SSW 6.9 mph
(SSW 11 kph)
- 10SM
11:35
Clear
59°F / 15°C 46°F / 8°C 63% 29.77 in
(1008 mb)
SW 5.8 mph
(SW 9 kph)
- 10SM
11:15
Clear
59°F / 15°C 48°F / 9°C 68% 29.77 in
(1008 mb)
SW 6.9 mph
(SW 11 kph)
- 10SM
10:55
Clear
59°F / 15°C 48°F / 9°C 68% 29.8 in
(1009 mb)
SSW 6.9 mph
(SSW 11 kph)
- 10SM
10:35
Clear
57°F / 14°C 48°F / 9°C 72% 29.8 in
(1009 mb)
SSW 5.8 mph
(SSW 9 kph)
- 10SM
10:15
Partly Cloudy
55°F / 13°C 48°F / 9°C 77% 29.8 in
(1009 mb)
SSW 4.6 mph
(SSW 7 kph)
- 10SM
09:55
Mostly Cloudy
54°F / 12°C 46°F / 8°C 77% 29.8 in
(1009 mb)
SW 3.5 mph
(SW 6 kph)
- 10SM
09:35
Overcast
52°F / 11°C 46°F / 8°C 82% 29.8 in
(1009 mb)
Calm - 10SM
09:15
Overcast
50°F / 10°C 46°F / 8°C 88% 29.83 in
(1010 mb)
SSE 3.5 mph
(SSE 6 kph)
- 10SM
08:55
Overcast
50°F / 10°C 46°F / 8°C 88% 29.83 in
(1010 mb)
SW 3.5 mph
(SW 6 kph)
- 10SM
08:35
Overcast
48°F / 9°C 46°F / 8°C 94% 29.86 in
(1011 mb)
Calm - 10SM
08:15
Overcast
48°F / 9°C 46°F / 8°C 94% 29.86 in
(1011 mb)
Calm - 10SM
07:55
Overcast
48°F / 9°C 46°F / 8°C 94% 29.86 in
(1011 mb)
SW 3.5 mph
(SW 6 kph)
- 10SM
07:35
Overcast
48°F / 9°C 46°F / 8°C 94% 29.86 in
(1011 mb)
Calm - 10SM
07:15
Overcast
48°F / 9°C 46°F / 8°C 94% 29.86 in
(1011 mb)
SSW 3.5 mph
(SSW 6 kph)
- 10SM
06:55
Overcast
48°F / 9°C 46°F / 8°C 94% 29.86 in
(1011 mb)
Calm - 10SM
06:35
Overcast
48°F / 9°C 46°F / 8°C 94% 29.86 in
(1011 mb)
Calm - 10SM
06:15
Overcast
48°F / 9°C 46°F / 8°C 94% 29.86 in
(1011 mb)
Calm - 10SM
05:55
Overcast
48°F / 9°C 46°F / 8°C 94% 29.86 in
(1011 mb)
Calm - 10SM
05:35
Overcast
46°F / 8°C 46°F / 8°C 100% 29.83 in
(1010 mb)
Calm - 10SM
05:15
Overcast
46°F / 8°C 46°F / 8°C 100% 29.83 in
(1010 mb)
Calm - 10SM
04:55
Overcast
46°F / 8°C 45°F / 7°C 93% 29.83 in
(1010 mb)
Calm - 10SM
04:35
Overcast
46°F / 8°C 45°F / 7°C 93% 29.83 in
(1010 mb)
Calm - 7SM
04:15
Overcast
Fog And Mist
46°F / 8°C 45°F / 7°C 93% 29.83 in
(1010 mb)
Calm - 4SM
03:55
Overcast
46°F / 8°C 45°F / 7°C 93% 29.86 in
(1011 mb)
Calm - 10SM
03:35
Overcast
46°F / 8°C 46°F / 8°C 100% 29.86 in
(1011 mb)
WNW 3.5 mph
(WNW 6 kph)
- 10SM
03:15
Overcast
46°F / 8°C 45°F / 7°C 93% 29.86 in
(1011 mb)
Calm - 10SM
02:55
Overcast
46°F / 8°C 45°F / 7°C 93% 29.83 in
(1010 mb)
Calm - 7SM
02:35
Mostly Cloudy
Fog
46°F / 8°C 45°F / 7°C 93% 29.86 in
(1011 mb)
Calm - 1/2SM
02:15
Partly Cloudy
46°F / 8°C 45°F / 7°C 93% 29.86 in
(1011 mb)
Calm - 10SM
01:55
Overcast
48°F / 9°C 46°F / 8°C 94% 29.86 in
(1011 mb)
Calm - 10SM
01:35
Overcast
50°F / 10°C 46°F / 8°C 88% 29.86 in
(1011 mb)
Calm - 10SM
01:15
Overcast
50°F / 10°C 46°F / 8°C 88% 29.86 in
(1011 mb)
Calm - 10SM
00:55
Overcast
50°F / 10°C 46°F / 8°C 88% 29.86 in
(1011 mb)
Calm - 10SM
00:35
Overcast
50°F / 10°C 46°F / 8°C 88% 29.86 in
(1011 mb)
Calm - 10SM
00:15
Overcast
50°F / 10°C 46°F / 8°C 88% 29.86 in
(1011 mb)
Calm - 10SM
Time Weather Temperature Dewpoint Humidity Pressure Winds Precip Visibility


Weather for websites

WeatherForYou.com, LLC is not responsible for any damages or problems caused by this service. Current weather conditions are obtained from the closest station including government and personal stations which may have varying degrees of accuracy. Weather forecasts are derived from the NOAA NDFD. Like all things, this site belongs to Jesus Christ... He just trusts me to maintain it. If you have any questions or comments email webmaster@weatherforyou.com

Copyright © 2014, WeatherForYou.com LLC. All rights reserved.